User: anonymous   Login
Location: Unspecified
(0.0000°N, 0.0000°E)
Time: 17:15:18
(UTC+02:00)
Language:

Meteor PRIRODA - Orbit

View from above orbital plane
View from above orbital plane
View from above satellite
View from above satellite

Ground track
Ground track

The orbit data is extracted from the following two-line orbital elements,

1 12585U 81065A   17112.94676236 +.00001660 +00000-0 +79582-4 0  9994
2 12585 097.4267 093.0642 0013489 229.1423 130.8644 15.20243875948060
Epoch (UTC): 22 April 2017 22:43:20
Eccentricity: 0.0013489
inclination: 97.4267°
perigee height: 496 km
apogee height: 514 km
right ascension of ascending node: 93.0642°
argument of perigee: 229.1423°
revolutions per day: 15.20243875
mean anomaly at epoch: 130.8644°
orbit number at epoch: 94806

The dashed part of the orbit path shows where the satellite is in the earth's shadow,  

DLR